Time,TemperatureF,DewpointF,PressureIn,WindDirection,WindDirectionDegrees,WindSpeedMPH,WindSpeedGustMPH,Humidity,HourlyPrecipIn,Conditions,Clouds,dailyrainin,SoftwareType,DateUTC
2013-05-24 00:01:00,57.9,51.8,29.89,WNW,289,0.0,1.0,80,0.00,,,0.00,meteohub,2013-05-24 04:01:00,
2013-05-24 00:02:00,57.9,51.4,29.89,WNW,289,0.0,1.0,79,0.00,,,0.00,meteohub,2013-05-24 04:02:00,
2013-05-24 00:07:00,58.1,51.6,29.89,West,280,0.0,1.0,79,0.00,,,0.00,meteohub,2013-05-24 04:07:00,
2013-05-24 00:12:00,58.1,51.6,29.89,West,280,0.0,1.0,79,0.00,,,0.00,meteohub,2013-05-24 04:12:00,
2013-05-24 00:17:00,57.9,51.8,29.89,West,280,0.0,1.0,80,0.00,,,0.00,meteohub,2013-05-24 04:17:00,
2013-05-24 00:22:00,57.6,51.8,29.89,West,280,0.0,0.0,81,0.00,,,0.00,meteohub,2013-05-24 04:22:00,
2013-05-24 00:27:00,57.0,51.6,29.89,West,280,0.0,0.0,82,0.00,,,0.00,meteohub,2013-05-24 04:27:00,
2013-05-24 00:32:00,56.5,51.4,29.89,West,280,0.0,0.0,83,0.00,,,0.00,meteohub,2013-05-24 04:32:00,
2013-05-24 00:37:00,56.1,51.1,29.89,West,280,0.0,0.0,83,0.00,,,0.00,meteohub,2013-05-24 04:37:00,
2013-05-24 00:42:00,56.3,51.3,29.89,WNW,302,0.0,1.0,83,0.00,,,0.00,meteohub,2013-05-24 04:42:00,
2013-05-24 00:47:00,56.8,51.4,29.89,NE,53,2.0,4.0,82,0.00,,,0.00,meteohub,2013-05-24 04:47:00,
2013-05-24 00:52:00,57.2,51.8,29.89,NNE,30,0.0,9.0,82,0.00,,,0.00,meteohub,2013-05-24 04:52:00,
2013-05-24 00:57:00,57.4,51.6,29.89,NE,49,2.0,9.0,81,0.00,,,0.00,meteohub,2013-05-24 04:57:00,
2013-05-24 01:02:00,57.2,51.8,29.88,NNE,15,3.0,9.0,82,0.00,,,0.00,meteohub,2013-05-24 05:02:00,
2013-05-24 01:07:00,57.0,51.6,29.89,North,358,0.0,6.0,82,0.00,,,0.00,meteohub,2013-05-24 05:07:00,
2013-05-24 01:12:00,56.7,51.6,29.88,North,358,3.0,6.0,83,0.00,,,0.00,meteohub,2013-05-24 05:12:00,
2013-05-24 01:17:00,56.7,51.6,29.89,North,1,1.0,5.0,83,0.00,,,0.00,meteohub,2013-05-24 05:17:00,
2013-05-24 01:22:00,56.8,51.4,29.89,NNE,16,0.0,9.0,82,0.00,,,0.00,meteohub,2013-05-24 05:22:00,
2013-05-24 01:27:00,57.0,51.6,29.89,NNE,29,5.0,9.0,82,0.00,,,0.00,meteohub,2013-05-24 05:27:00,
2013-05-24 01:32:00,57.0,51.6,29.89,NE,54,3.0,9.0,82,0.00,,,0.00,meteohub,2013-05-24 05:32:00,
2013-05-24 01:37:00,56.8,51.4,29.89,NE,53,0.0,9.0,82,0.00,,,0.00,meteohub,2013-05-24 05:37:00,
2013-05-24 01:42:00,56.8,51.4,29.90,NE,55,3.0,6.0,82,0.00,,,0.00,meteohub,2013-05-24 05:42:00,
2013-05-24 01:47:00,56.7,51.3,29.90,NNE,25,1.0,6.0,82,0.00,,,0.00,meteohub,2013-05-24 05:47:00,
2013-05-24 01:52:00,56.8,51.1,29.90,NNW,338,2.0,5.0,81,0.00,,,0.00,meteohub,2013-05-24 05:52:00,
2013-05-24 01:57:00,56.8,51.1,29.89,NNE,23,4.0,9.0,81,0.00,,,0.00,meteohub,2013-05-24 05:57:00,
2013-05-24 02:02:00,56.8,51.1,29.89,NE,43,0.0,9.0,81,0.00,,,0.00,meteohub,2013-05-24 06:02:00,
2013-05-24 02:07:00,56.7,50.9,29.89,NNE,33,1.0,7.0,81,0.00,,,0.00,meteohub,2013-05-24 06:07:00,
2013-05-24 02:12:00,56.5,50.7,29.89,NE,43,0.0,5.0,81,0.00,,,0.00,meteohub,2013-05-24 06:12:00,
2013-05-24 02:17:00,56.1,50.7,29.89,NE,44,0.0,3.0,82,0.00,,,0.00,meteohub,2013-05-24 06:17:00,
2013-05-24 02:22:00,55.8,50.7,29.89,NE,41,0.0,3.0,83,0.00,,,0.00,meteohub,2013-05-24 06:22:00,
2013-05-24 02:27:00,55.6,50.5,29.89,SE,126,0.0,1.0,83,0.00,,,0.00,meteohub,2013-05-24 06:27:00,
2013-05-24 02:32:00,55.2,50.5,29.89,SE,125,0.0,1.0,84,0.00,,,0.00,meteohub,2013-05-24 06:32:00,
2013-05-24 02:37:00,55.0,50.0,29.89,NNW,343,0.0,1.0,83,0.00,,,0.00,meteohub,2013-05-24 06:37:00,
2013-05-24 02:42:00,55.0,50.0,29.89,NNE,16,0.0,5.0,83,0.00,,,0.00,meteohub,2013-05-24 06:42:00,
2013-05-24 02:47:00,54.9,49.8,29.89,NNW,341,0.0,5.0,83,0.00,,,0.00,meteohub,2013-05-24 06:47:00,
2013-05-24 02:52:00,54.9,49.8,29.89,WNW,290,0.0,5.0,83,0.00,,,0.00,meteohub,2013-05-24 06:52:00,
2013-05-24 02:57:00,54.5,49.5,29.89,WNW,290,0.0,1.0,83,0.00,,,0.00,meteohub,2013-05-24 06:57:00,
2013-05-24 03:02:00,54.1,49.1,29.89,West,268,0.0,0.0,83,0.00,,,0.00,meteohub,2013-05-24 07:02:00,
2013-05-24 03:07:00,53.8,49.1,29.89,West,268,0.0,0.0,84,0.00,,,0.00,meteohub,2013-05-24 07:07:00,
2013-05-24 03:12:00,53.4,49.1,29.89,SW,226,0.0,0.0,85,0.00,,,0.00,meteohub,2013-05-24 07:12:00,
2013-05-24 03:17:00,53.2,49.1,29.89,SW,224,0.0,0.0,86,0.00,,,0.00,meteohub,2013-05-24 07:17:00,
2013-05-24 03:22:00,53.1,48.9,29.89,SW,225,0.0,1.0,86,0.00,,,0.00,meteohub,2013-05-24 07:22:00,
2013-05-24 03:27:00,52.9,49.1,29.89,SW,225,0.0,1.0,87,0.00,,,0.00,meteohub,2013-05-24 07:27:00,
2013-05-24 03:32:00,52.5,48.7,29.89,SW,225,0.0,0.0,87,0.00,,,0.00,meteohub,2013-05-24 07:32:00,
2013-05-24 03:37:00,52.3,48.9,29.88,SW,225,0.0,0.0,88,0.00,,,0.00,meteohub,2013-05-24 07:37:00,
2013-05-24 03:42:00,52.3,48.6,29.88,SW,225,0.0,0.0,87,0.00,,,0.00,meteohub,2013-05-24 07:42:00,
2013-05-24 03:47:00,52.5,48.4,29.88,SW,228,0.0,0.0,86,0.00,,,0.00,meteohub,2013-05-24 07:47:00,
2013-05-24 03:52:00,52.9,48.6,29.88,South,170,0.0,0.0,85,0.00,,,0.00,meteohub,2013-05-24 07:52:00,
2013-05-24 03:57:00,53.1,48.0,29.89,SE,128,0.0,0.0,83,0.00,,,0.00,meteohub,2013-05-24 07:57:00,
2013-05-24 04:02:00,53.4,48.4,29.89,NE,36,0.0,0.0,83,0.00,,,0.00,meteohub,2013-05-24 08:02:00,
2013-05-24 04:07:00,53.4,48.4,29.89,East,100,0.0,1.0,83,0.00,,,0.00,meteohub,2013-05-24 08:07:00,
2013-05-24 04:12:00,53.2,48.2,29.89,SE,132,0.0,1.0,83,0.00,,,0.00,meteohub,2013-05-24 08:12:00,
2013-05-24 04:17:00,52.9,48.2,29.89,SSE,158,0.0,1.0,84,0.00,,,0.00,meteohub,2013-05-24 08:17:00,
2013-05-24 04:22:00,52.5,48.2,29.89,SSW,205,0.0,1.0,85,0.00,,,0.00,meteohub,2013-05-24 08:22:00,
2013-05-24 04:27:00,52.5,48.2,29.89,SSW,205,0.0,1.0,85,0.00,,,0.00,meteohub,2013-05-24 08:27:00,
2013-05-24 04:32:00,52.5,47.8,29.89,SW,229,0.0,1.0,84,0.00,,,0.00,meteohub,2013-05-24 08:32:00,
2013-05-24 04:37:00,52.5,47.8,29.89,SW,228,0.0,0.0,84,0.00,,,0.00,meteohub,2013-05-24 08:37:00,
2013-05-24 04:42:00,52.5,48.2,29.89,SW,224,1.0,0.0,85,0.00,,,0.00,meteohub,2013-05-24 08:42:00,
2013-05-24 04:47:00,52.5,48.2,29.90,SW,218,0.0,1.0,85,0.00,,,0.00,meteohub,2013-05-24 08:47:00,
2013-05-24 04:52:00,52.2,47.8,29.89,SW,221,0.0,1.0,85,0.00,,,0.00,meteohub,2013-05-24 08:52:00,
2013-05-24 04:57:00,52.0,47.7,29.90,SSW,204,0.0,1.0,85,0.00,,,0.00,meteohub,2013-05-24 08:57:00,
2013-05-24 05:02:00,51.8,47.7,29.90,SW,218,2.0,2.0,86,0.00,,,0.00,meteohub,2013-05-24 09:02:00,
2013-05-24 05:07:00,51.6,47.3,29.91,SW,226,0.0,2.0,85,0.00,,,0.00,meteohub,2013-05-24 09:07:00,
2013-05-24 05:12:00,51.6,47.5,29.91,SSW,207,0.0,2.0,86,0.00,,,0.00,meteohub,2013-05-24 09:12:00,
2013-05-24 05:17:00,52.3,47.3,29.90,SSW,207,0.0,4.0,83,0.00,,,0.00,meteohub,2013-05-24 09:17:00,
2013-05-24 05:22:00,53.1,47.3,29.90,NNE,16,1.0,4.0,81,0.00,,,0.00,meteohub,2013-05-24 09:22:00,
2013-05-24 05:27:00,53.6,47.3,29.90,NW,308,0.0,4.0,79,0.00,,,0.00,meteohub,2013-05-24 09:27:00,
2013-05-24 05:32:00,54.1,47.1,29.90,WSW,253,0.0,4.0,77,0.00,,,0.00,meteohub,2013-05-24 09:32:00,
2013-05-24 05:37:00,54.9,47.5,29.90,NNE,20,4.0,4.0,76,0.00,,,0.00,meteohub,2013-05-24 09:37:00,
2013-05-24 05:42:00,55.4,47.3,29.90,NNE,27,10.0,10.0,74,0.00,,,0.00,meteohub,2013-05-24 09:42:00,
2013-05-24 05:47:00,55.8,47.7,29.91,NE,44,8.0,11.0,74,0.00,,,0.00,meteohub,2013-05-24 09:47:00,
2013-05-24 05:52:00,55.8,47.7,29.90,NNE,18,1.0,12.0,74,0.00,,,0.00,meteohub,2013-05-24 09:52:00,
2013-05-24 05:57:00,55.6,47.5,29.90,NNE,26,5.0,12.0,74,0.00,,,0.00,meteohub,2013-05-24 09:57:00,
2013-05-24 06:02:00,55.8,47.7,29.90,WNW,284,0.0,12.0,74,0.00,,,0.00,meteohub,2013-05-24 10:02:00,
2013-05-24 06:07:00,55.6,47.5,29.90,North,8,6.0,11.0,74,0.00,,,0.00,meteohub,2013-05-24 10:07:00,
2013-05-24 06:12:00,55.2,47.1,29.90,NE,42,3.0,9.0,74,0.00,,,0.00,meteohub,2013-05-24 10:12:00,
2013-05-24 06:17:00,55.2,47.5,29.91,NE,53,1.0,6.0,75,0.00,,,0.00,meteohub,2013-05-24 10:17:00,
2013-05-24 06:22:00,54.9,47.5,29.91,NE,50,5.0,6.0,76,0.00,,,0.00,meteohub,2013-05-24 10:22:00,
2013-05-24 06:27:00,54.7,47.3,29.91,NE,50,0.0,6.0,76,0.00,,,0.00,meteohub,2013-05-24 10:27:00,
2013-05-24 06:32:00,54.5,47.5,29.92,WNW,297,0.0,6.0,77,0.00,,,0.00,meteohub,2013-05-24 10:32:00,
2013-05-24 06:37:00,54.3,47.7,29.92,NE,36,10.0,10.0,78,0.00,,,0.00,meteohub,2013-05-24 10:37:00,
2013-05-24 06:42:00,54.3,48.0,29.92,NNE,26,4.0,15.0,79,0.00,,,0.00,meteohub,2013-05-24 10:42:00,
2013-05-24 06:47:00,54.1,48.0,29.93,SSW,203,0.0,15.0,80,0.00,,,0.00,meteohub,2013-05-24 10:47:00,
2013-05-24 06:52:00,54.3,48.2,29.93,SW,225,1.0,15.0,80,0.00,,,0.00,meteohub,2013-05-24 10:52:00,
2013-05-24 06:57:00,54.7,48.4,29.93,ENE,71,4.0,13.0,79,0.00,,,0.00,meteohub,2013-05-24 10:57:00,
2013-05-24 07:02:00,55.2,48.6,29.93,NNE,25,4.0,17.0,78,0.00,,,0.00,meteohub,2013-05-24 11:02:00,
2013-05-24 07:07:00,55.8,48.9,29.93,NW,319,0.0,17.0,78,0.00,,,0.00,meteohub,2013-05-24 11:07:00,
2013-05-24 07:12:00,55.9,48.9,29.93,NNE,30,10.0,17.0,77,0.00,,,0.00,meteohub,2013-05-24 11:12:00,
2013-05-24 07:17:00,56.1,48.7,29.94,NNE,16,6.0,16.0,76,0.00,,,0.00,meteohub,2013-05-24 11:17:00,
2013-05-24 07:22:00,56.3,48.9,29.94,NNW,346,3.0,16.0,76,0.00,,,0.00,meteohub,2013-05-24 11:22:00,
2013-05-24 07:27:00,56.5,48.7,29.94,NE,47,2.0,12.0,75,0.00,,,0.00,meteohub,2013-05-24 11:27:00,
2013-05-24 07:32:00,56.7,48.7,29.94,West,281,4.0,12.0,75,0.00,,,0.00,meteohub,2013-05-24 11:32:00,
2013-05-24 07:37:00,56.8,48.2,29.95,NNE,16,5.0,16.0,73,0.00,,,0.00,meteohub,2013-05-24 11:37:00,
2013-05-24 07:42:00,57.0,48.0,29.95,NE,43,6.0,16.0,72,0.00,,,0.00,meteohub,2013-05-24 11:42:00,
2013-05-24 07:47:00,57.4,48.4,29.95,NW,304,3.0,16.0,72,0.00,,,0.00,meteohub,2013-05-24 11:47:00,
2013-05-24 07:52:00,57.6,47.8,29.95,NNW,340,4.0,14.0,70,0.00,,,0.00,meteohub,2013-05-24 11:52:00,
2013-05-24 07:57:00,57.7,47.7,29.96,NW,306,1.0,13.0,69,0.00,,,0.00,meteohub,2013-05-24 11:57:00,
2013-05-24 08:02:00,57.9,47.8,29.96,NE,37,5.0,16.0,69,0.00,,,0.00,meteohub,2013-05-24 12:02:00,
2013-05-24 08:07:00,57.9,47.8,29.96,NW,313,0.0,16.0,69,0.00,,,0.00,meteohub,2013-05-24 12:07:00,
2013-05-24 08:12:00,58.5,48.0,29.96,NE,42,13.0,16.0,68,0.00,,,0.00,meteohub,2013-05-24 12:12:00,
2013-05-24 08:17:00,58.5,48.4,29.96,NW,321,5.0,17.0,69,0.00,,,0.00,meteohub,2013-05-24 12:17:00,
2013-05-24 08:22:00,58.6,47.7,29.96,NW,320,4.0,17.0,67,0.00,,,0.00,meteohub,2013-05-24 12:22:00,
2013-05-24 08:27:00,58.6,47.3,29.97,NNE,18,14.0,17.0,66,0.00,,,0.00,meteohub,2013-05-24 12:27:00,
2013-05-24 08:32:00,58.5,47.5,29.97,NNE,20,7.0,19.0,67,0.00,,,0.00,meteohub,2013-05-24 12:32:00,
2013-05-24 08:37:00,58.6,47.3,29.97,NNE,25,4.0,19.0,66,0.00,,,0.00,meteohub,2013-05-24 12:37:00,
2013-05-24 08:42:00,58.5,46.8,29.98,NNE,20,12.0,19.0,65,0.00,,,0.00,meteohub,2013-05-24 12:42:00,
2013-05-24 08:47:00,58.5,46.8,29.98,NE,40,5.0,18.0,65,0.00,,,0.00,meteohub,2013-05-24 12:47:00,
2013-05-24 08:52:00,58.5,46.8,29.98,NW,306,4.0,22.0,65,0.00,,,0.00,meteohub,2013-05-24 12:52:00,
2013-05-24 08:57:00,58.6,46.9,29.99,NE,40,7.0,22.0,65,0.00,,,0.00,meteohub,2013-05-24 12:57:00,
2013-05-24 09:02:00,58.8,46.6,29.99,NE,41,12.0,22.0,64,0.00,,,0.00,meteohub,2013-05-24 13:02:00,
2013-05-24 09:07:00,58.6,46.6,29.99,NNE,20,4.0,17.0,64,0.00,,,0.00,meteohub,2013-05-24 13:07:00,
2013-05-24 09:12:00,58.6,46.0,30.00,NNE,13,9.0,19.0,63,0.00,,,0.00,meteohub,2013-05-24 13:12:00,
2013-05-24 09:17:00,58.6,46.0,30.00,NNE,33,13.0,19.0,63,0.00,,,0.00,meteohub,2013-05-24 13:17:00,
2013-05-24 09:22:00,58.8,45.9,30.00,NNE,20,4.0,19.0,62,0.00,,,0.00,meteohub,2013-05-24 13:22:00,
2013-05-24 09:27:00,58.6,45.7,30.00,NNE,20,16.0,19.0,62,0.00,,,0.00,meteohub,2013-05-24 13:27:00,
2013-05-24 09:32:00,58.3,44.4,30.01,NNE,30,12.0,22.0,60,0.00,,,0.00,meteohub,2013-05-24 13:32:00,
2013-05-24 09:37:00,58.6,44.8,30.01,NNE,24,14.0,24.0,60,0.00,,,0.00,meteohub,2013-05-24 13:37:00,
2013-05-24 09:42:00,58.6,45.3,30.01,NNE,32,14.0,24.0,61,0.00,,,0.00,meteohub,2013-05-24 13:42:00,
2013-05-24 09:47:00,58.6,44.8,30.01,NE,44,6.0,23.0,60,0.00,,,0.00,meteohub,2013-05-24 13:47:00,
2013-05-24 09:52:00,58.8,44.6,30.02,NNW,340,5.0,23.0,59,0.00,,,0.00,meteohub,2013-05-24 13:52:00,
2013-05-24 09:57:00,58.5,43.7,30.02,NW,314,6.0,19.0,58,0.00,,,0.00,meteohub,2013-05-24 13:57:00,
2013-05-24 10:02:00,58.5,43.7,30.02,NNE,15,7.0,19.0,58,0.00,,,0.00,meteohub,2013-05-24 14:02:00,
2013-05-24 10:07:00,58.5,43.3,30.02,NNW,334,8.0,19.0,57,0.00,,,0.00,meteohub,2013-05-24 14:07:00,
2013-05-24 10:12:00,58.5,43.7,30.03,NW,315,5.0,19.0,58,0.00,,,0.00,meteohub,2013-05-24 14:12:00,
2013-05-24 10:17:00,58.6,43.5,30.03,WNW,282,1.0,17.0,57,0.00,,,0.00,meteohub,2013-05-24 14:17:00,
2013-05-24 10:22:00,59.0,44.2,30.03,NNE,16,5.0,16.0,58,0.00,,,0.00,meteohub,2013-05-24 14:22:00,
2013-05-24 10:27:00,59.2,43.5,30.03,NNE,27,7.0,13.0,56,0.00,,,0.00,meteohub,2013-05-24 14:27:00,
2013-05-24 10:32:00,58.8,43.2,30.04,NNE,27,4.0,14.0,56,0.00,,,0.00,meteohub,2013-05-24 14:32:00,
2013-05-24 10:37:00,59.4,42.3,30.04,NE,53,8.0,14.0,53,0.00,,,0.00,meteohub,2013-05-24 14:37:00,
2013-05-24 10:42:00,58.6,42.1,30.04,North,0,1.0,15.0,54,0.00,,,0.00,meteohub,2013-05-24 14:42:00,
2013-05-24 10:47:00,58.5,42.8,30.05,NNE,19,8.0,15.0,56,0.00,,,0.00,meteohub,2013-05-24 14:47:00,
2013-05-24 10:52:00,58.5,42.4,30.05,North,5,10.0,15.0,55,0.00,,,0.00,meteohub,2013-05-24 14:52:00,
2013-05-24 10:57:00,57.9,42.3,30.05,WNW,294,2.0,17.0,56,0.00,,,0.00,meteohub,2013-05-24 14:57:00,
2013-05-24 11:02:00,58.5,42.4,30.06,NNE,25,9.0,17.0,55,0.00,,,0.00,meteohub,2013-05-24 15:02:00,
2013-05-24 11:07:00,58.5,42.4,30.06,NNE,33,8.0,17.0,55,0.00,,,0.00,meteohub,2013-05-24 15:07:00,
2013-05-24 11:12:00,58.3,40.8,30.06,NE,36,10.0,15.0,52,0.00,,,0.00,meteohub,2013-05-24 15:12:00,
2013-05-24 11:17:00,58.3,40.8,30.06,NE,43,12.0,19.0,52,0.00,,,0.00,meteohub,2013-05-24 15:17:00,
2013-05-24 11:22:00,58.3,40.8,30.07,NNE,33,4.0,19.0,52,0.00,,,0.00,meteohub,2013-05-24 15:22:00,
2013-05-24 11:27:00,58.5,40.5,30.07,North,359,6.0,19.0,51,0.00,,,0.00,meteohub,2013-05-24 15:27:00,
2013-05-24 11:32:00,58.3,41.2,30.07,NNE,23,9.0,20.0,53,0.00,,,0.00,meteohub,2013-05-24 15:32:00,
2013-05-24 11:37:00,58.8,41.7,30.07,NW,316,7.0,20.0,53,0.00,,,0.00,meteohub,2013-05-24 15:37:00,
2013-05-24 11:42:00,58.6,41.0,30.07,NE,40,7.0,18.0,52,0.00,,,0.00,meteohub,2013-05-24 15:42:00,
2013-05-24 11:47:00,58.8,40.8,30.07,NE,43,12.0,18.0,51,0.00,,,0.00,meteohub,2013-05-24 15:47:00,
2013-05-24 11:52:00,58.5,40.8,30.07,NE,41,11.0,20.0,52,0.00,,,0.00,meteohub,2013-05-24 15:52:00,
2013-05-24 11:57:00,59.2,41.5,30.08,NW,313,1.0,20.0,52,0.00,,,0.00,meteohub,2013-05-24 15:57:00,
2013-05-24 12:02:00,59.5,39.4,30.08,NNE,32,12.0,20.0,47,0.00,,,0.00,meteohub,2013-05-24 16:02:00,
2013-05-24 12:07:00,59.4,40.3,30.08,NNE,20,7.0,18.0,49,0.00,,,0.00,meteohub,2013-05-24 16:07:00,
2013-05-24 12:12:00,59.4,38.7,30.08,NNE,30,7.0,22.0,46,0.00,,,0.00,meteohub,2013-05-24 16:12:00,
2013-05-24 12:17:00,58.8,37.6,30.08,NNE,19,4.0,22.0,45,0.00,,,0.00,meteohub,2013-05-24 16:17:00,
2013-05-24 12:22:00,58.6,38.5,30.08,NW,319,6.0,23.0,47,0.00,,,0.00,meteohub,2013-05-24 16:22:00,
2013-05-24 12:27:00,58.6,38.5,30.08,NW,323,5.0,23.0,47,0.00,,,0.00,meteohub,2013-05-24 16:27:00,
2013-05-24 12:32:00,59.2,38.5,30.08,NNW,346,9.0,23.0,46,0.00,,,0.00,meteohub,2013-05-24 16:32:00,
2013-05-24 12:36:00,58.8,39.7,30.08,NW,307,2.0,22.0,49,0.00,,,0.00,meteohub,2013-05-24 16:36:00,
2013-05-24 12:42:00,59.2,39.0,30.09,North,351,8.0,19.0,47,0.00,,,0.00,meteohub,2013-05-24 16:42:00,
2013-05-24 12:47:00,59.4,38.7,30.08,NW,323,7.0,19.0,46,0.00,,,0.00,meteohub,2013-05-24 16:47:00,
2013-05-24 12:52:00,59.7,38.3,30.09,North,5,8.0,19.0,45,0.00,,,0.00,meteohub,2013-05-24 16:52:00,
2013-05-24 12:57:00,60.3,39.4,30.09,WNW,291,6.0,18.0,46,0.00,,,0.00,meteohub,2013-05-24 16:57:00,
2013-05-24 13:02:00,60.3,37.8,30.09,NNW,338,5.0,18.0,43,0.00,,,0.00,meteohub,2013-05-24 17:02:00,
2013-05-24 13:07:00,60.6,38.7,30.09,NW,314,6.0,16.0,44,0.00,,,0.00,meteohub,2013-05-24 17:07:00,
2013-05-24 13:12:00,60.6,36.9,30.09,NE,39,7.0,18.0,41,0.00,,,0.00,meteohub,2013-05-24 17:12:00,
2013-05-24 13:17:00,60.4,35.4,30.10,NE,46,5.0,19.0,39,0.00,,,0.00,meteohub,2013-05-24 17:17:00,
2013-05-24 13:22:00,61.0,36.5,30.09,North,0,1.0,25.0,40,0.00,,,0.00,meteohub,2013-05-24 17:22:00,
2013-05-24 13:27:00,61.0,35.8,30.09,North,9,6.0,25.0,39,0.00,,,0.00,meteohub,2013-05-24 17:27:00,
2013-05-24 13:32:00,60.6,36.9,30.10,NNE,30,10.0,25.0,41,0.00,,,0.00,meteohub,2013-05-24 17:32:00,
2013-05-24 13:36:00,61.2,34.7,30.09,NNE,27,5.0,21.0,37,0.00,,,0.00,meteohub,2013-05-24 17:36:00,
2013-05-24 13:42:00,61.2,36.0,30.10,WNW,291,2.0,21.0,39,0.00,,,0.00,meteohub,2013-05-24 17:42:00,
2013-05-24 13:47:00,61.3,35.6,30.10,NNE,18,9.0,20.0,38,0.00,,,0.00,meteohub,2013-05-24 17:47:00,
2013-05-24 13:52:00,61.3,34.9,30.10,NE,56,8.0,20.0,37,0.00,,,0.00,meteohub,2013-05-24 17:52:00,
2013-05-24 13:57:00,61.2,35.4,30.10,NE,41,2.0,25.0,38,0.00,,,0.00,meteohub,2013-05-24 17:57:00,
2013-05-24 14:02:00,61.3,35.6,30.10,NNE,20,8.0,25.0,38,0.00,,,0.00,meteohub,2013-05-24 18:02:00,
2013-05-24 14:07:00,61.3,36.9,30.10,North,5,7.0,25.0,40,0.00,,,0.00,meteohub,2013-05-24 18:07:00,
2013-05-24 14:12:00,61.3,36.9,30.10,NNE,27,9.0,22.0,40,0.00,,,0.00,meteohub,2013-05-24 18:12:00,
2013-05-24 14:17:00,61.9,36.0,30.10,NNE,20,10.0,22.0,38,0.00,,,0.00,meteohub,2013-05-24 18:17:00,
2013-05-24 14:22:00,62.4,37.2,30.10,ENE,67,1.0,20.0,39,0.00,,,0.00,meteohub,2013-05-24 18:22:00,
2013-05-24 14:27:00,62.4,35.1,30.10,NE,54,4.0,20.0,36,0.00,,,0.00,meteohub,2013-05-24 18:27:00,
2013-05-24 14:32:00,62.4,34.3,30.10,NW,305,2.0,17.0,35,0.00,,,0.00,meteohub,2013-05-24 18:32:00,
2013-05-24 14:37:00,62.4,35.1,30.10,NNE,15,13.0,18.0,36,0.00,,,0.00,meteohub,2013-05-24 18:37:00,
2013-05-24 14:42:00,62.4,36.5,30.10,North,11,9.0,18.0,38,0.00,,,0.00,meteohub,2013-05-24 18:42:00,
2013-05-24 14:47:00,62.6,33.8,30.10,NE,40,11.0,18.0,34,0.00,,,0.00,meteohub,2013-05-24 18:47:00,
2013-05-24 14:52:00,62.2,34.9,30.10,North,352,3.0,21.0,36,0.00,,,0.00,meteohub,2013-05-24 18:52:00,
2013-05-24 14:57:00,62.4,35.1,30.10,NE,40,6.0,21.0,36,0.00,,,0.00,meteohub,2013-05-24 18:57:00,
2013-05-24 15:02:00,62.1,34.2,30.10,ESE,112,3.0,21.0,35,0.00,,,0.00,meteohub,2013-05-24 19:02:00,
2013-05-24 15:07:00,61.9,36.0,30.11,SW,219,2.0,21.0,38,0.00,,,0.00,meteohub,2013-05-24 19:07:00,
2013-05-24 15:12:00,62.2,34.2,30.11,NNE,18,3.0,21.0,35,0.00,,,0.00,meteohub,2013-05-24 19:12:00,
2013-05-24 15:17:00,62.6,34.5,30.10,NNW,332,5.0,21.0,35,0.00,,,0.00,meteohub,2013-05-24 19:17:00,
2013-05-24 15:22:00,62.8,34.0,30.11,NNW,339,2.0,23.0,34,0.00,,,0.00,meteohub,2013-05-24 19:22:00,
2013-05-24 15:27:00,62.8,34.0,30.11,NNE,23,4.0,23.0,34,0.00,,,0.00,meteohub,2013-05-24 19:27:00,
2013-05-24 15:32:00,62.8,34.7,30.11,NE,42,1.0,23.0,35,0.00,,,0.00,meteohub,2013-05-24 19:32:00,
2013-05-24 15:37:00,63.0,34.9,30.12,NNE,16,12.0,17.0,35,0.00,,,0.00,meteohub,2013-05-24 19:37:00,
2013-05-24 15:42:00,62.8,34.0,30.12,NE,40,10.0,14.0,34,0.00,,,0.00,meteohub,2013-05-24 19:42:00,
2013-05-24 15:46:00,62.6,33.8,30.12,North,6,15.0,18.0,34,0.00,,,0.00,meteohub,2013-05-24 19:46:00,
2013-05-24 15:52:00,62.4,32.2,30.11,NE,35,10.0,19.0,32,0.00,,,0.00,meteohub,2013-05-24 19:52:00,
2013-05-24 15:57:00,62.4,32.2,30.11,NE,41,2.0,19.0,32,0.00,,,0.00,meteohub,2013-05-24 19:57:00,
2013-05-24 16:02:00,62.6,32.4,30.12,NNE,13,9.0,19.0,32,0.00,,,0.00,meteohub,2013-05-24 20:02:00,
2013-05-24 16:07:00,62.4,33.6,30.11,NNE,33,0.0,20.0,34,0.00,,,0.00,meteohub,2013-05-24 20:07:00,
2013-05-24 16:12:00,62.8,33.3,30.11,WNW,293,0.0,20.0,33,0.00,,,0.00,meteohub,2013-05-24 20:12:00,
2013-05-24 16:17:00,63.0,34.2,30.12,West,276,2.0,19.0,34,0.00,,,0.00,meteohub,2013-05-24 20:17:00,
2013-05-24 16:22:00,62.8,34.0,30.12,NNE,22,9.0,18.0,34,0.00,,,0.00,meteohub,2013-05-24 20:22:00,
2013-05-24 16:27:00,63.0,34.2,30.12,NW,307,2.0,19.0,34,0.00,,,0.00,meteohub,2013-05-24 20:27:00,
2013-05-24 16:32:00,62.8,34.0,30.12,West,280,0.0,19.0,34,0.00,,,0.00,meteohub,2013-05-24 20:32:00,
2013-05-24 16:37:00,63.0,34.9,30.12,NE,36,4.0,14.0,35,0.00,,,0.00,meteohub,2013-05-24 20:37:00,
2013-05-24 16:42:00,63.1,33.6,30.12,NE,36,7.0,14.0,33,0.00,,,0.00,meteohub,2013-05-24 20:42:00,
2013-05-24 16:47:00,62.8,34.0,30.12,NNE,27,4.0,19.0,34,0.00,,,0.00,meteohub,2013-05-24 20:47:00,
2013-05-24 16:52:00,62.6,33.1,30.12,NNE,19,10.0,19.0,33,0.00,,,0.00,meteohub,2013-05-24 20:52:00,
2013-05-24 16:57:00,62.4,33.6,30.12,East,85,4.0,19.0,34,0.00,,,0.00,meteohub,2013-05-24 20:57:00,
2013-05-24 17:02:00,62.8,34.7,30.12,West,276,1.0,18.0,35,0.00,,,0.00,meteohub,2013-05-24 21:02:00,
2013-05-24 17:07:00,62.8,35.4,30.12,NNE,24,6.0,15.0,36,0.00,,,0.00,meteohub,2013-05-24 21:07:00,
2013-05-24 17:12:00,62.8,34.7,30.12,WSW,257,2.0,13.0,35,0.00,,,0.00,meteohub,2013-05-24 21:12:00,
2013-05-24 17:17:00,62.6,34.5,30.12,ENE,72,2.0,13.0,35,0.00,,,0.00,meteohub,2013-05-24 21:17:00,
2013-05-24 17:22:00,62.6,33.8,30.12,WNW,298,2.0,12.0,34,0.00,,,0.00,meteohub,2013-05-24 21:22:00,
2013-05-24 17:27:00,62.8,35.4,30.12,NW,309,2.0,12.0,36,0.00,,,0.00,meteohub,2013-05-24 21:27:00,
2013-05-24 17:32:00,63.0,35.6,30.13,NNE,27,4.0,9.0,36,0.00,,,0.00,meteohub,2013-05-24 21:32:00,
2013-05-24 17:37:00,62.8,34.7,30.13,NW,304,1.0,11.0,35,0.00,,,0.00,meteohub,2013-05-24 21:37:00,
2013-05-24 17:42:00,62.8,34.0,30.13,NNE,20,8.0,13.0,34,0.00,,,0.00,meteohub,2013-05-24 21:42:00,
2013-05-24 17:47:00,62.6,33.8,30.13,WSW,252,1.0,13.0,34,0.00,,,0.00,meteohub,2013-05-24 21:47:00,
2013-05-24 17:52:00,62.4,34.3,30.13,NNE,15,0.0,14.0,35,0.00,,,0.00,meteohub,2013-05-24 21:52:00,
2013-05-24 17:57:00,62.4,33.6,30.13,NE,41,13.0,14.0,34,0.00,,,0.00,meteohub,2013-05-24 21:57:00,
2013-05-24 18:02:00,62.1,32.5,30.13,NNE,32,5.0,16.0,33,0.00,,,0.00,meteohub,2013-05-24 22:02:00,
2013-05-24 18:07:00,62.2,33.4,30.13,NNE,33,9.0,16.0,34,0.00,,,0.00,meteohub,2013-05-24 22:07:00,
2013-05-24 18:12:00,61.9,34.0,30.13,SSW,200,0.0,17.0,35,0.00,,,0.00,meteohub,2013-05-24 22:12:00,
2013-05-24 18:17:00,61.9,32.5,30.13,NE,43,11.0,17.0,33,0.00,,,0.00,meteohub,2013-05-24 22:17:00,
2013-05-24 18:22:00,61.9,32.5,30.13,NNW,344,0.0,17.0,33,0.00,,,0.00,meteohub,2013-05-24 22:22:00,
2013-05-24 18:27:00,61.9,33.3,30.13,WNW,297,2.0,13.0,34,0.00,,,0.00,meteohub,2013-05-24 22:27:00,
2013-05-24 18:32:00,61.7,33.1,30.13,WNW,287,0.0,13.0,34,0.00,,,0.00,meteohub,2013-05-24 22:32:00,
2013-05-24 18:37:00,61.7,33.1,30.13,NW,309,0.0,13.0,34,0.00,,,0.00,meteohub,2013-05-24 22:37:00,
2013-05-24 18:42:00,61.7,32.4,30.14,NNE,12,8.0,12.0,33,0.00,,,0.00,meteohub,2013-05-24 22:42:00,
2013-05-24 18:47:00,61.5,34.3,30.14,NW,304,0.0,16.0,36,0.00,,,0.00,meteohub,2013-05-24 22:47:00,
2013-05-24 18:52:00,61.3,32.0,30.14,North,358,4.0,17.0,33,0.00,,,0.00,meteohub,2013-05-24 22:52:00,
2013-05-24 18:57:00,61.2,31.8,30.14,NW,308,2.0,17.0,33,0.00,,,0.00,meteohub,2013-05-24 22:57:00,
2013-05-24 19:02:00,61.0,31.6,30.14,NE,46,6.0,17.0,33,0.00,,,0.00,meteohub,2013-05-24 23:02:00,
2013-05-24 19:07:00,60.6,31.3,30.14,NW,311,4.0,16.0,33,0.00,,,0.00,meteohub,2013-05-24 23:07:00,
2013-05-24 19:11:00,60.4,32.0,30.15,ENE,58,1.0,16.0,34,0.00,,,0.00,meteohub,2013-05-24 23:11:00,
2013-05-24 19:16:00,60.3,32.5,30.15,East,81,1.0,16.0,35,0.00,,,0.00,meteohub,2013-05-24 23:16:00,
2013-05-24 19:22:00,59.9,32.2,30.15,NE,36,4.0,15.0,35,0.00,,,0.00,meteohub,2013-05-24 23:22:00,
2013-05-24 19:27:00,59.7,32.0,30.15,NE,44,15.0,15.0,35,0.00,,,0.00,meteohub,2013-05-24 23:27:00,
2013-05-24 19:32:00,59.5,31.8,30.15,NNE,20,7.0,17.0,35,0.00,,,0.00,meteohub,2013-05-24 23:32:00,
2013-05-24 19:37:00,59.4,31.6,30.15,NNE,33,2.0,17.0,35,0.00,,,0.00,meteohub,2013-05-24 23:37:00,
2013-05-24 19:42:00,59.2,31.5,30.16,NW,304,0.0,17.0,35,0.00,,,0.00,meteohub,2013-05-24 23:42:00,
2013-05-24 19:47:00,59.0,31.5,30.16,NNE,18,5.0,16.0,35,0.00,,,0.00,meteohub,2013-05-24 23:47:00,
2013-05-24 19:52:00,58.6,32.4,30.16,NNE,25,4.0,16.0,37,0.00,,,0.00,meteohub,2013-05-24 23:52:00,
2013-05-24 19:57:00,58.5,32.4,30.16,NNE,27,4.0,16.0,37,0.00,,,0.00,meteohub,2013-05-24 23:57:00,
2013-05-24 20:02:00,58.3,31.5,30.16,NNW,342,2.0,14.0,36,0.00,,,0.00,meteohub,2013-05-25 00:02:00,
2013-05-24 20:07:00,57.9,31.1,30.16,NNE,23,15.0,15.0,36,0.00,,,0.00,meteohub,2013-05-25 00:07:00,
2013-05-24 20:12:00,57.7,30.9,30.16,NNE,18,14.0,17.0,36,0.00,,,0.00,meteohub,2013-05-25 00:12:00,
2013-05-24 20:17:00,57.7,30.9,30.16,NNE,16,12.0,17.0,36,0.00,,,0.00,meteohub,2013-05-25 00:17:00,
2013-05-24 20:22:00,57.4,32.0,30.16,NE,40,10.0,17.0,38,0.00,,,0.00,meteohub,2013-05-25 00:22:00,
2013-05-24 20:27:00,57.2,31.8,30.16,NE,42,6.0,16.0,38,0.00,,,0.00,meteohub,2013-05-25 00:27:00,
2013-05-24 20:32:00,56.8,32.7,30.16,NNE,25,7.0,15.0,40,0.00,,,0.00,meteohub,2013-05-25 00:32:00,
2013-05-24 20:37:00,56.7,32.5,30.17,NE,54,13.0,15.0,40,0.00,,,0.00,meteohub,2013-05-25 00:37:00,
2013-05-24 20:42:00,56.5,31.8,30.16,East,86,2.0,15.0,39,0.00,,,0.00,meteohub,2013-05-25 00:42:00,
2013-05-24 20:47:00,56.1,31.5,30.16,North,11,7.0,15.0,39,0.00,,,0.00,meteohub,2013-05-25 00:47:00,
2013-05-24 20:52:00,55.9,32.0,30.17,NNE,12,2.0,14.0,40,0.00,,,0.00,meteohub,2013-05-25 00:52:00,
2013-05-24 20:57:00,55.6,32.2,30.17,NE,40,2.0,12.0,41,0.00,,,0.00,meteohub,2013-05-25 00:57:00,
2013-05-24 21:02:00,55.2,32.0,30.17,North,11,2.0,12.0,41,0.00,,,0.00,meteohub,2013-05-25 01:02:00,
2013-05-24 21:07:00,55.0,31.8,30.17,NE,49,1.0,10.0,41,0.00,,,0.00,meteohub,2013-05-25 01:07:00,
2013-05-24 21:12:00,54.9,31.6,30.17,NE,41,4.0,6.0,41,0.00,,,0.00,meteohub,2013-05-25 01:12:00,
2013-05-24 21:17:00,54.9,31.6,30.18,NE,47,7.0,8.0,41,0.00,,,0.00,meteohub,2013-05-25 01:17:00,
2013-05-24 21:22:00,54.9,32.2,30.18,NE,42,1.0,8.0,42,0.00,,,0.00,meteohub,2013-05-25 01:22:00,
2013-05-24 21:27:00,54.5,32.5,30.18,NW,308,0.0,8.0,43,0.00,,,0.00,meteohub,2013-05-25 01:27:00,
2013-05-24 21:32:00,54.1,32.7,30.18,SSW,212,0.0,7.0,44,0.00,,,0.00,meteohub,2013-05-25 01:32:00,
2013-05-24 21:37:00,53.6,33.3,30.18,ENE,76,2.0,4.0,46,0.00,,,0.00,meteohub,2013-05-25 01:37:00,
2013-05-24 21:42:00,53.2,34.5,30.18,NE,42,0.0,2.0,49,0.00,,,0.00,meteohub,2013-05-25 01:42:00,
2013-05-24 21:47:00,52.5,34.0,30.18,NE,42,0.0,2.0,49,0.00,,,0.00,meteohub,2013-05-25 01:47:00,
2013-05-24 21:52:00,52.0,33.4,30.18,NE,41,0.0,2.0,49,0.00,,,0.00,meteohub,2013-05-25 01:52:00,
2013-05-24 21:57:00,51.3,33.8,30.18,NE,41,0.0,0.0,51,0.00,,,0.00,meteohub,2013-05-25 01:57:00,
2013-05-24 22:02:00,50.7,33.8,30.18,NE,53,0.0,0.0,52,0.00,,,0.00,meteohub,2013-05-25 02:02:00,
2013-05-24 22:07:00,50.2,33.6,30.19,NE,53,0.0,0.0,53,0.00,,,0.00,meteohub,2013-05-25 02:07:00,
2013-05-24 22:12:00,49.8,33.8,30.19,ESE,116,0.0,1.0,54,0.00,,,0.00,meteohub,2013-05-25 02:12:00,
2013-05-24 22:17:00,49.6,33.6,30.19,ESE,115,0.0,1.0,54,0.00,,,0.00,meteohub,2013-05-25 02:17:00,
2013-05-24 22:22:00,49.5,34.0,30.19,ESE,116,0.0,1.0,55,0.00,,,0.00,meteohub,2013-05-25 02:22:00,
2013-05-24 22:27:00,49.5,34.0,30.19,ESE,115,0.0,0.0,55,0.00,,,0.00,meteohub,2013-05-25 02:27:00,
2013-05-24 22:32:00,49.5,35.2,30.20,ESE,115,0.0,0.0,58,0.00,,,0.00,meteohub,2013-05-25 02:32:00,
2013-05-24 22:36:00,49.3,34.7,30.20,NE,54,1.0,0.0,57,0.00,,,0.00,meteohub,2013-05-25 02:36:00,
2013-05-24 22:42:00,49.6,34.2,30.20,NNE,33,2.0,2.0,55,0.00,,,0.00,meteohub,2013-05-25 02:42:00,
2013-05-24 22:47:00,49.6,34.5,30.20,ENE,63,2.0,2.0,56,0.00,,,0.00,meteohub,2013-05-25 02:47:00,
2013-05-24 22:52:00,49.6,34.5,30.20,NNE,25,1.0,5.0,56,0.00,,,0.00,meteohub,2013-05-25 02:52:00,
2013-05-24 22:57:00,49.6,35.1,30.20,NNE,22,2.0,7.0,57,0.00,,,0.00,meteohub,2013-05-25 02:57:00,
2013-05-24 23:02:00,49.5,34.9,30.20,NNE,13,3.0,8.0,57,0.00,,,0.00,meteohub,2013-05-25 03:02:00,
2013-05-24 23:07:00,49.8,35.2,30.20,NNE,18,2.0,8.0,57,0.00,,,0.00,meteohub,2013-05-25 03:07:00,
2013-05-24 23:12:00,49.6,35.1,30.20,NE,47,8.0,8.0,57,0.00,,,0.00,meteohub,2013-05-25 03:12:00,
2013-05-24 23:17:00,50.4,35.8,30.21,NNE,23,10.0,10.0,57,0.00,,,0.00,meteohub,2013-05-25 03:17:00,
2013-05-24 23:22:00,50.5,35.4,30.21,NE,44,4.0,11.0,56,0.00,,,0.00,meteohub,2013-05-25 03:22:00,
2013-05-24 23:27:00,50.5,35.4,30.21,NNE,23,9.0,13.0,56,0.00,,,0.00,meteohub,2013-05-25 03:27:00,
2013-05-24 23:32:00,50.7,35.6,30.21,ENE,71,4.0,13.0,56,0.00,,,0.00,meteohub,2013-05-25 03:32:00,
2013-05-24 23:37:00,50.9,35.8,30.22,NE,37,9.0,13.0,56,0.00,,,0.00,meteohub,2013-05-25 03:37:00,
2013-05-24 23:42:00,51.1,36.0,30.22,North,11,3.0,13.0,56,0.00,,,0.00,meteohub,2013-05-25 03:42:00,
2013-05-24 23:47:00,51.1,36.0,30.22,NNE,33,5.0,13.0,56,0.00,,,0.00,meteohub,2013-05-25 03:47:00,
2013-05-24 23:52:00,51.1,36.0,30.22,ENE,66,1.0,10.0,56,0.00,,,0.00,meteohub,2013-05-25 03:52:00,
2013-05-24 23:57:00,50.9,36.1,30.22,ENE,64,4.0,10.0,57,0.00,,,0.00,meteohub,2013-05-25 03:57:00,